Location: Pl�tzky
(52.0521°N, 11.8020°E)
Time: 03:45:04
(UTC+00:00)

Cosmos 44 Rocket - Pass Details

Date: 22 November 2019
Orbit: 658 x 732 km, 65.1° (Epoch: 05 December)

Event Time Altitude Azimuth Distance (km) Brightness Sun altitude
Rises 18:03:47 0° 318° (NW) 3,021 7.2 -25.7°
Reaches altitude 10° 18:06:14 10° 325° (NW) 2,097 6.2 -26.0°
Enters shadow 18:09:10 32° 351° (N) 1,146 4.4 -26.5°
